Location: Donald C. Martin Observatory
(38.3885°N, 82.3916°W)
Time: 00:52:13
(UTC-04:00)

Daily predictions for brighter satellites

Satellite Brightness Start Highest point End
(mag) Time Altitude Azimuth Time Altitude Azimuth Time Altitude Azimuth
Sich 1 Rocket 4.3 00:05:59 52° NW 00:05:59 52° NW 00:09:41 10° N
Cosmos 1782 Rocket 4.5 00:09:07 45° N 00:09:07 45° N 00:12:13 10° N
Cosmos 494 Rocket 4.2 00:03:59 10° NNW 00:08:45 65° WNW 00:08:45 65° WNW
Meteor 1-18 Rocket 4.3 00:03:35 10° N 00:09:08 71° ENE 00:09:08 71° ENE
Lacrosse 5 rocket 4.5 00:11:22 10° NW 00:12:47 12° NNW 00:14:13 10° N
Spot 4 4.2 00:14:20 61° NW 00:14:20 61° NW 00:18:27 10° NNW
CZ-4 R/B 4.4 00:11:05 10° N 00:15:12 53° NW 00:15:12 53° NW
SME Rocket 4.4 00:24:45 54° SW 00:25:34 57° W 00:33:59 10° NNW
Cosmos 2026 Rocket 4.1 00:25:32 59° WSW 00:26:10 62° W 00:32:21 10° N
ALOS 2 4.3 00:28:20 28° NE 00:28:20 28° NE 00:30:56 10° N
CZ-4B R/B 3.9 00:22:34 10° N 00:26:59 55° NW 00:26:59 55° NW
Cosmos 1975 Rocket 4.3 00:27:36 10° NNW 00:30:38 41° NNW 00:30:38 41° NNW
S3M 3.9 00:40:30 10° N 00:46:18 79° NW 00:46:18 79° NW
Cosmos 1697 Rocket 4.4 00:49:13 22° ENE 00:49:13 22° ENE 00:51:45 10° NE
Cosmos 2297 Rocket 3.0 00:43:10 10° N 00:48:16 42° NE 00:48:16 42° NE
ATLAS 5 CENTAUR R/B 4.3 00:56:00 10° WNW 00:59:24 19° W 00:59:24 19° W
ATLAS CENTAUR R/B 3.7 01:05:54 21° NNW 01:05:54 21° NNW 01:07:54 10° N
Cosmos 1553 Rocket 4.4 01:00:01 10° NNW 01:05:58 53° W 01:05:58 53° W
Cosmos 2278 4.1 01:12:16 58° NNE 01:12:16 58° NNE 01:16:49 10° NNE
Cosmos 2082 4.1 01:05:45 10° NNW 01:10:40 60° NNE 01:10:40 60° NNE
CZ-2C R/B 4.3 01:25:43 34° WNW 01:25:43 34° WNW 01:28:58 10° NNW
Mayak 0.7 01:24:47 10° N 01:26:48 28° N 01:26:48 28° N
Meteor 1-11 Rocket 4.4 01:36:32 52° WNW 01:36:32 52° WNW 01:41:51 10° N
Cosmos 2227 Rocket 3.0 01:32:06 10° NNW 01:36:06 44° NW 01:36:06 44° NW
USA 229 DEB 3.6 01:38:23 79° NE 01:38:23 79° NE 01:44:55 10° NE
USA 229 3.6 01:38:31 79° NE 01:38:31 79° NE 01:45:01 10° NE
Cosmos 407 Rocket 4.3 01:34:49 10° NNW 01:38:55 51° N 01:38:55 51° N
CZ-2C R/B 4.0 01:37:56 10° N 01:42:04 29° WNW 01:42:04 29° WNW
Cosmos 2315 Rocket 4.1 01:36:47 10° N 01:42:16 69° NW 01:42:16 69° NW
Cosmos 1656 4.4 01:53:47 47° NW 01:53:47 47° NW 01:58:24 10° NNE
CZ-4B R/B 4.4 02:04:25 16° N 02:04:25 16° N 02:05:13 10° N
Cosmos 1980 Rocket 2.7 02:03:42 55° NE 02:03:42 55° NE 02:08:07 10° NNE
CZ-4C R/B 3.5 01:56:23 10° NNW 02:03:24 52° NE 02:06:47 33° ESE
BREEZE-M DEB (TANK) 4.4 01:41:44 10° NW 02:06:01 72° SW 02:07:14 64° S
Cosmos 1238 Rocket 4.0 02:05:01 10° N 02:09:20 63° N 02:09:20 63° N
Cosmos 1452 Rocket 4.1 02:28:49 52° NNW 02:28:49 52° NNW 02:33:05 10° NNE
NOSS 3-1 (C) 3.4 02:29:04 75° NE 02:29:04 75° NE 02:34:54 10° NNE
H-2A R/B 4.3 02:26:33 10° N 02:28:35 28° N 02:28:35 28° N
Cosmos 1697 Rocket 3.7 02:30:56 37° WNW 02:30:56 37° WNW 02:36:00 10° N
Cosmos 2297 Rocket 4.0 02:27:47 10° NW 02:30:03 19° WNW 02:30:03 19° WNW
Cosmos 1850 Rocket 4.4 02:35:45 10° NNW 02:40:44 61° NE 02:40:44 61° NE
Nadezhda 1 Rocket 3.9 02:35:39 10° N 02:41:30 79° NW 02:41:30 79° NW
Cosmos 1709 Rocket 4.1 02:42:48 59° ESE 02:43:03 59° E 02:49:03 10° NNE
SL-16 R/B 2.6 02:44:16 53° E 02:44:16 53° E 02:49:19 10° NNE
Helios 1A Rocket 4.5 02:44:43 10° NNE 02:47:07 33° NE 02:47:07 33° NE
BREEZE M DEB (TANK) 3.9 02:48:29 62° NW 02:48:46 63° NW 02:52:06 10° NE
ISS -0.3 02:50:03 10° N 02:51:15 12° NNE 02:52:28 10° NE
Cosmos 2322 Rocket 2.3 02:53:12 66° E 02:53:12 66° E 02:58:33 10° NNE
SL-16 R/B 3.9 02:55:29 18° ESE 02:59:23 35° ENE 03:04:58 10° N
Cosmos 1626 Rocket 4.5 02:58:33 10° N 03:01:42 46° N 03:01:42 46° N
Cosmos 1666 4.4 03:07:17 31° N 03:07:17 31° N 03:09:25 10° N
USA 234 3.3 03:00:23 10° NE 03:06:54 71° NW 03:08:24 54° WSW
Resurs 1-4 Rocket 3.0 03:14:34 10° NNE 03:19:31 39° E 03:20:23 37° ESE
IRS-1C 4.3 03:14:29 10° NNE 03:19:46 60° E 03:20:14 58° SE
Cosmos 2181 Rocket 4.0 03:14:19 10° N 03:20:45 87° E 03:22:06 60° SSE
Cosmos 1461 4.3 03:16:49 10° NNW 03:19:15 33° NW 03:19:15 33° NW
ARIANE 5 R/B 3.5 03:20:48 10° NNE 03:25:35 38° E 03:26:38 34° SE
ATLAS 2AS CENTAUR R/B 3.8 03:26:52 31° SSE 03:29:36 41° ESE 03:36:59 10° NE
ADEOS Rocket 2.8 03:24:22 10° NNE 03:30:39 85° WNW 03:31:34 66° SSW
SL-08 ROCKET BODY 4.4 03:31:22 59° S 03:32:36 84° E 03:38:43 10° N
NOSS 3-1 (A) 4.0 03:33:28 38° W 03:34:50 44° NW 03:41:01 10° NNE
NPP 3.6 03:30:29 10° N 03:35:51 69° WNW 03:36:18 65° WSW
Cosmos 1331 Rocket 3.8 03:36:02 80° SW 03:36:17 85° WNW 03:41:28 10° NNE
Cosmos 1842 4.5 03:33:00 10° NNW 03:35:25 35° NNW 03:35:25 35° NNW
SL-08 R/B 3.3 03:37:31 68° NW 03:37:31 68° NW 03:41:42 10° NNW
CZ-2D R/B 2.4 03:34:03 10° NNE 03:39:29 61° E 03:40:47 48° SSE
COBE Rocket 4.0 03:35:09 10° N 03:40:17 64° WNW 03:40:35 62° W
Cosmos 2263 Rocket 2.1 03:35:00 10° NNW 03:40:43 87° ENE 03:42:29 47° SSE
NOSS 2-3 (E) 4.1 03:41:49 53° SE 03:42:08 55° ESE 03:47:15 10° NE
Cosmos 220 Rocket 4.1 03:38:23 10° NNW 03:42:06 68° N 03:42:06 68° N
IRS-P3 4.4 03:39:38 10° N 03:44:50 52° WNW 03:45:21 50° W
Cosmos 2360 Rocket 2.2 03:44:09 56° S 03:45:18 72° ESE 03:50:56 10° NNE
Cosmos 1980 Rocket 4.1 03:45:28 15° WNW 03:47:06 16° NW 03:50:33 10° NNW
COSMOS 2428 4.0 03:45:35 24° SE 03:47:56 32° ESE 03:52:58 10° NE
CBERS-1 4.2 03:44:04 10° N 03:49:04 54° WNW 03:49:31 52° W
DELTA 2 R/B (1) 3.5 03:49:16 59° S 03:49:40 61° SSE 03:55:09 10° E
Cosmos 44 3.9 03:45:26 10° NNW 03:49:42 49° NE 03:54:04 10° SE
Cosmos 2219 Rocket 4.3 03:46:41 11° SE 03:50:07 19° E 03:53:59 10° ENE
Cosmos 2074 Rocket 3.9 03:49:38 47° S 03:51:40 89° E 03:58:00 10° N
CZ-4C R/B 3.5 03:45:15 10° NW 03:51:52 36° WSW 03:51:52 36° WSW
OAO 3 Rocket 3.7 03:54:41 45° SE 03:54:41 45° SE 03:58:44 10° E
Cosmos 2058 Rocket 3.6 03:56:09 43° SE 03:57:14 55° E 04:01:39 10° NNE
Cosmos 1486 Rocket 4.5 03:52:07 10° N 03:57:23 60° ENE 04:01:31 16° SSE
AQUA 4.2 03:53:49 10° N 03:58:23 46° WNW 03:58:41 46° W
Cosmos 1953 Rocket 3.6 03:56:11 10° N 04:00:40 75° E 04:01:44 50° SSE
Uosat 12 SS-18 rocket 4.3 04:02:03 60° WSW 04:02:52 76° WNW 04:08:24 10° NNE
Centaur D AC-29 3.1 04:03:54 22° SSE 04:03:54 22° SSE 04:09:47 10° ESE
ATLAS 3B R/B 4.4 03:58:18 10° NNW 04:04:13 31° NE 04:09:55 10° ESE
CBERS 1 LM4 rocket 4.2 03:59:48 10° NNE 04:04:35 83° WNW 04:05:37 56° SSW
Centaur D AC-25 4.3 03:53:23 10° W 04:07:56 20° SSE 04:09:30 10° SE
MOS 1 Rocket 3.2 04:02:24 10° NNE 04:06:55 69° E 04:08:00 48° SSE
Cosmos 2333 Rocket 4.2 04:02:59 10° SSE 04:07:09 22° E 04:11:22 10° NE
Cosmos 2322 3.6 04:06:53 47° SSW 04:08:38 88° WNW 04:14:19 10° NNE
Meteor 2-5 Rocket 4.3 04:03:47 10° N 04:09:21 57° ENE 04:14:49 11° SSE
Cosmos 2154 Rocket 4.3 04:07:32 25° SSE 04:11:19 66° E 04:17:32 10° NNE
Meteor 1-15 Rocket 4.5 04:12:02 42° WSW 04:13:26 52° WNW 04:18:59 10° N
Okean O Rocket 4.4 04:13:07 10° ENE 04:14:48 12° E 04:16:29 10° ESE
NOSS 2-3 (C) 3.8 04:14:04 50° SW 04:15:17 76° NW 04:20:40 10° NNE
Cosmos 1610 Rocket 4.4 04:12:36 34° S 04:15:28 88° W 04:21:38 10° N
SL-8 R/B 3.7 04:14:20 49° WSW 04:15:37 78° NNW 04:20:28 10° NE
Iridium 4 Rocket 3.7 04:18:25 35° SSW 04:20:57 72° W 04:26:39 10° N
Cosmos 1726 Rocket 3.7 04:21:10 48° WSW 04:21:48 53° W 04:26:08 10° N
UNK 4.0 04:22:03 43° WSW 04:22:29 45° W 04:26:57 10° NNW
Cosmos 1707 2.6 04:20:05 10° N 04:23:58 90° E 04:25:01 47° S
SL-16 R/B 3.8 04:26:08 17° W 04:28:15 21° NW 04:32:30 10° N
ADEOS 3.7 04:23:09 10° N 04:28:18 60° WNW 04:30:19 36° SW
ISS -2.7 04:25:15 10° NW 04:28:24 44° NE 04:31:33 10° ESE
Meteor 1-4 Rocket 3.8 04:30:12 26° WNW 04:30:12 26° WNW 04:32:54 10° NNW
Cosmos 2341 Rocket 4.3 04:25:24 17° S 04:30:29 67° E 04:36:48 10° NNE
Cosmos 44 Rocket 3.2 04:26:32 10° NW 04:31:10 56° WSW 04:34:04 22° S
Cosmos 1607 4.3 04:25:30 10° NNW 04:31:57 70° ENE 04:38:22 10° SE
Cosmos 1302 Rocket 4.5 04:30:38 33° WSW 04:32:26 46° WNW 04:37:33 10° N
Cosmos 1378 3.0 04:30:33 10° N 04:34:17 85° W 04:35:39 37° S
USA 161 3.6 04:32:38 10° SE 04:35:18 29° ENE 04:37:56 10° NNE
IRS-1D 4.2 04:31:53 10° N 04:36:27 38° WNW 04:38:05 29° WSW
Cosmos 2322 Rocket 4.0 04:35:01 14° W 04:37:28 18° NW 04:41:20 10° N
H-2A R/B 3.6 04:11:02 10° W 04:37:32 49° SSW 04:42:34 10° SE
Cosmos 2333 4.3 04:34:25 27° SSW 04:37:41 79° ESE 04:43:24 10° NNE
CZ-2D R/B 3.5 04:38:21 10° N 04:42:40 73° WNW 04:44:34 32° SSW
SL-16 R/B 3.2 04:40:35 27° SW 04:42:54 36° W 04:48:36 10° NNW
Meteor 2-8 Rocket 4.4 04:41:20 10° NNW 04:47:23 65° W 04:52:37 14° S
Cosmos 1503 Rocket 4.0 04:44:12 10° NNW 04:49:32 89° W 04:54:53 10° SSE
Cosmos 1340 Rocket 2.6 04:53:35 10° NNW 04:57:33 78° W 05:01:10 12° S
ADEOS II 2.7 04:53:49 10° NNE 04:58:59 56° E 05:04:08 10° S
Resurs 1-4 Rocket 3.4 04:54:55 10° NNW 04:59:05 24° WNW 05:01:28 18° WSW
ERBS 4.5 04:57:36 12° SSE 04:59:49 20° ESE 05:02:24 10° ENE
Cosmos 1805 3.8 04:56:53 11° S 05:00:31 56° E 05:04:23 10° NNE
Meteor 1-22 Rocket 4.2 04:57:20 16° SSW 05:01:54 77° W 05:07:49 10° N
ARIANE 5 R/B 3.9 05:00:24 10° NNW 05:04:28 24° WNW 05:06:58 17° WSW
BREEZE-M DEB (TANK) 2.6 05:05:01 22° W 05:06:45 59° NNW 05:11:55 10° ENE
Cosmos 1932 4.4 05:00:57 10° NW 05:07:27 73° WSW 05:13:46 10° SSE
Cosmos 1992 Rocket 4.1 05:07:16 18° SSW 05:11:04 64° WNW 05:16:15 10° NNE
Cosmos 1271 Rocket 3.8 05:11:22 21° WSW 05:13:12 30° WNW 05:16:44 10° NNW
Lacrosse 5 rocket 3.6 05:11:51 10° NNW 05:15:21 28° NE 05:19:03 10° E
Cosmos 2228 4.5 05:13:48 17° WSW 05:15:27 21° WNW 05:18:42 10° NNW
UNKNOWN OBJECT B 4.2 05:12:43 10° NNW 05:15:46 23° WNW 05:17:32 17° WSW
Cosmos 1184 Rocket 4.1 05:14:01 10° NW 05:16:43 23° W 05:17:41 20° WSW
CZ-2D R/B 3.9 05:15:29 10° NNW 05:19:00 18° WNW 05:22:06 11° W
Cosmos 1758 3.6 05:15:38 10° S 05:19:36 71° E 05:23:38 10° NNE
ATLAS 2AS CENTAUR R/B 3.6 05:14:19 15° WSW 05:20:31 48° NW 05:28:22 10° NNE
Cosmos 389 Rocket 3.4 05:21:17 18° SW 05:23:19 32° WNW 05:26:35 10° N
Cosmos 2263 Rocket 4.0 05:22:26 10° W 05:23:46 11° W 05:24:05 11° W
Cosmos 1809 Rocket 4.4 05:19:08 10° S 05:25:14 79° W 05:31:25 10° N
Cosmos 1953 2.5 05:23:11 10° S 05:27:12 75° E 05:31:14 10° N
Abrixas rocket 3.5 05:25:02 13° SSW 05:27:36 32° SE 05:30:36 10° ENE
CZ-4B R/B 2.8 05:24:15 10° NNE 05:28:07 89° W 05:32:10 10° SSW
NOSS 3-4 (A) 4.3 05:22:12 10° S 05:28:10 48° ESE 05:34:18 10° NE
NOSS 3-4 (C) 4.3 05:22:17 10° S 05:28:15 47° ESE 05:34:22 10° NE
Lacrosse 5 3.5 05:25:27 10° S 05:29:43 28° ESE 05:34:01 10° ENE
Cosmos 2360 Rocket 4.0 05:26:17 10° W 05:29:52 17° NW 05:33:27 10° NNW
In-Cosmos 22 4.1 05:25:39 10° NNW 05:30:53 58° W 05:36:03 10° S
COSMOS 2428 3.6 05:27:37 13° WSW 05:32:06 34° WNW 05:37:18 10° N
Cosmos 2219 Rocket 2.5 05:28:26 12° SW 05:33:33 55° WNW 05:39:09 10° NNE
Meteor 2-21 4.5 05:28:15 10° SSW 05:34:17 70° W 05:40:24 10° N
Cosmos 1980 3.7 05:28:53 10° SSW 05:34:34 90° WNW 05:40:17 10° NNE
DELTA 2 R/B (1) 3.7 05:30:31 10° W 05:36:06 80° N 05:41:41 10° E
Cosmos 2237 Rocket 2.2 05:30:49 10° SSW 05:36:28 87° ESE 05:42:07 10° NNE
PAYLOAD B 4.4 05:30:51 10° NNE 05:36:29 85° ESE 05:42:06 10° SSW
Aureole 2 Rocket 3.7 05:33:21 13° SW 05:36:41 35° WNW 05:40:27 10° N
OAO 3 Rocket 3.4 05:32:35 10° W 05:37:20 57° S 05:42:10 10° ESE
Meteor 2-14 Rocket 4.4 05:32:39 10° S 05:38:43 84° W 05:44:49 10° N
SL-8 Rocket 4.2 05:33:27 10° SSW 05:39:37 56° W 05:45:50 10° N
SEDSat Delta rocket 4.0 05:36:49 12° SW 05:40:03 30° S 05:43:54 10° ESE
PSLV R/B 4.2 05:38:24 10° N 05:42:10 48° WNW 05:46:01 10° SSW
Cosmos-2242 4.4 05:38:20 10° SSE 05:42:18 40° E 05:46:19 10° NNE
ATLAS CENTAUR R/B 3.6 05:38:42 10° NNW 05:42:58 29° NNE 05:45:10 10° E
CZ-4B R/B 3.4 05:38:03 10° NNE 05:43:45 87° ESE 05:49:21 10° SSW
Cosmos 1844 Rocket 3.2 05:39:53 10° NW 05:45:06 39° WSW 05:50:19 10° S
Cosmos 1470 3.0 05:43:21 10° S 05:47:16 74° E 05:51:12 10° N
Cosmos 2333 Rocket 2.6 05:45:29 10° SW 05:51:00 49° WNW 05:56:31 10° NNE
Okean O Rocket 1.8 05:47:06 10° N 05:51:29 57° WNW 05:55:51 10° SSW
SeaSat 1 2.5 05:46:40 10° S 05:51:30 56° WSW 05:56:21 10° NW
Timation 1 Rocket 4.4 05:46:41 10° NNW 05:52:41 87° ENE 05:58:40 10° SSE
Atlas Centaur 2 3.8 05:50:17 10° S 05:53:03 16° SSE 05:56:09 10° ESE
IRS-1C Rocket 4.1 05:48:43 10° N 05:53:59 79° WNW 05:59:13 10° SSW
ATLAS 3B R/B 2.7 05:48:44 10° NW 05:55:09 52° WSW 06:01:22 10° S
Okean 3 Rocket 3.6 05:51:21 10° NNW 05:55:44 64° W 06:00:08 10° S
Cosmos 1818 3.7 05:55:54 10° SSW 06:01:19 89° ESE 06:06:48 10° NNE
BREEZE-M DEB (TANK) 4.4 05:55:05 10° W 06:02:03 31° NNW 06:04:26 10° NE
